Air Resources Laboratory banner image
Air Resources Laboratory web site National Oceanic and Atmospheric Administration (NOAA)

pa roundup


Office: CTP

ASUS41 KCTP 110503
RWRCTP

REGIONAL WEATHER ROUNDUP
NATIONAL WEATHER SERVICE STATE COLLEGE PA
100 AM EDT THU AUG 11 2022

Note: "fair" indicates few or no clouds below 12,000 feet with no
significant weather and/or obstructions to visibility.

* = STATION THAT DOES NOT REPORT PRECIPITATION /E.G. RAIN...SNOW...ETC/
    THUNDER OR FOG.

PAZ002>004-007>009-013>016-020>023-029>032-110600-
WESTERN PENNSYLVANIA

CITY           SKY/WX    TMP DP  RH WIND       PRES   REMARKS
ERIE           CLEAR     62  54  74 S6        30.06S
MEADVILLE      CLEAR     60  53  77 CALM      30.09S
FRANKLIN       CLEAR     58  58 100 CALM      30.09F FOG
NEW CASTLE     FAIR      57  57 100 CALM        N/A
BEAVER COUNTY  CLEAR     66  60  80 NW3       30.09S
BUTLER         FOG      N/A N/A N/A CALM      30.09S VSB 1/2
PITTSBURGH INT PTCLDY    66  63  90 W3        30.08S
PITTSBURGH     CLOUDY    70  64  81 VRB5      30.08S
INDIANA*       MOCLDY    66  64  94 NW5       30.11F
LATROBE        CLOUDY    70  68  94 CALM      30.08S
WASHINGTON CO* CLOUDY    68  67  96 N3        30.11S
$$

PAZ004>006-010>012-017>019-024>028-033>037-041-042-045-046-049>053-110600-
CENTRAL PENNSYLVANIA

CITY           SKY/WX    TMP DP  RH WIND       PRES   REMARKS
BRADFORD       PTCLDY    58  54  86 CALM      30.09S FOG
ST MARYS       PTCLDY    61  59  94 CALM      30.12S
DUBOIS         CLEAR     62  59  90 CALM      30.08F
CLEARFIELD     CLEAR     65  63  93 CALM      30.07S
JOHNSTOWN      CLOUDY    67  61  81 NW9       30.10S
SOMERSET       CLOUDY    66  63  88 NW5       30.10F
ALTOONA        PTCLDY    69  63  81 N3        30.06F
STATE COLLEGE  CLOUDY    69  64  82 W7        30.05S
REEDSVILLE     CLOUDY    73  73 100 CALM      30.01F
WELLSBORO      MOCLDY    61  59  94 CALM      30.06S
WILLIAMSPORT   MOCLDY    67  62  84 CALM      29.99S
SELINSGROVE    CLOUDY    71  67  87 CALM      29.99S
FT INDIANTOWN  CLOUDY    77  65  65 W5        29.96F
CAPITAL CITY   MOCLDY    78  71  79 W6        29.97F
HARRISBURG     TSTM      79  69  71 W7        29.97F
YORK           LGT RAIN  73  70  90 W3        29.99F FOG
$$

PAZ038>040-043-044-047-048-054-055-060>062-067>071-110600-
EASTERN PENNSYLVANIA

CITY           SKY/WX    TMP DP  RH WIND       PRES   REMARKS
TOWANDA        CLEAR     63  61  94 CALM      30.05R
SCRANTON       PTCLDY    68  59  73 E5        30.02S
MOUNT POCONO   PTCLDY    64  58  80 N3        30.05F
HAZLETON       FAIR      64  63  94 CALM      30.06F
LEHIGHTON      FAIR      66  63  88 CALM      30.00F
ALLENTOWN      CLOUDY    73  62  68 NW3       29.98S
QN CITY/ALNTWN MOCLDY    73  68  83 CALM      29.99S
QUAKERTOWN*    MOCLDY    73  72  94 CALM      29.98F
PERKASIE*      CLOUDY    72  72 100 CALM      29.99F
DOYLESTOWN     CLOUDY    76  68  76 CALM      29.96F
READING        CLOUDY    78  69  73 W3        29.96F
LANCASTER      LGT RAIN  78  70  76 W6        29.98F
COATESVILLE    MOCLDY    75  73  94 CALM      29.99F
WEST CHESTER   MOCLDY    77  70  78 W3        29.97F
POTTSTOWN      CLOUDY    72  69  90 CALM      29.99F
BLUE BELL      MOCLDY    74  72  91 CALM      29.97F
NORTH PHILA    MOCLDY    79  70  74 CALM      29.96F
PHILADELPHIA   CLOUDY    81  74  79 W8        29.95F
$$


ASUS41 KCTP 110510
RWRCTP

REGIONAL WEATHER ROUNDUP
NATIONAL WEATHER SERVICE STATE COLLEGE PA
100 AM EDT THU AUG 11 2022

Note: "fair" indicates few or no clouds below 12,000 feet with no
significant weather and/or obstructions to visibility.

* = STATION THAT DOES NOT REPORT PRECIPITATION /E.G. RAIN...SNOW...ETC/
    THUNDER OR FOG.

PAZ002>004-007>009-013>016-020>023-029>032-110600-
WESTERN PENNSYLVANIA

CITY           SKY/WX    TMP DP  RH WIND       PRES   REMARKS
ERIE           CLEAR     62  54  74 S6        30.06S
MEADVILLE      CLEAR     60  53  77 CALM      30.09S
FRANKLIN       CLEAR     57  57 100 CALM      30.10S FOG
NEW CASTLE     FAIR      57  57 100 CALM        N/A
BEAVER COUNTY  CLEAR     66  60  80 NW3       30.09S
BUTLER         FOG      N/A N/A N/A CALM      30.09  VSB 1/4
PITTSBURGH INT PTCLDY    66  63  90 W3        30.08S
PITTSBURGH     CLOUDY    70  64  81 VRB5      30.08S
INDIANA*       MOCLDY    66  64  94 NW5       30.11F
LATROBE        CLOUDY    70  68  94 CALM      30.08S
WASHINGTON CO* CLOUDY    68  67  96 N3        30.11S
$$

PAZ004>006-010>012-017>019-024>028-033>037-041-042-045-046-049>053-110600-
CENTRAL PENNSYLVANIA

CITY           SKY/WX    TMP DP  RH WIND       PRES   REMARKS
BRADFORD       FOG       57  54  89 CALM      30.09S VSB 3/4
ST MARYS       PTCLDY    61  59  94 CALM      30.12S
DUBOIS         CLEAR     62  59  90 CALM      30.08F
CLEARFIELD     CLEAR     65  63  93 CALM      30.07S
JOHNSTOWN      CLOUDY    67  61  81 NW9       30.10S
SOMERSET       CLOUDY    66  63  88 NW5       30.10F
ALTOONA        PTCLDY    69  63  81 N3        30.06F
STATE COLLEGE  CLOUDY    69  64  82 W7        30.05S
REEDSVILLE     CLOUDY    73  73 100 CALM      30.01F
WELLSBORO      MOCLDY    61  59  94 CALM      30.06S
WILLIAMSPORT   MOCLDY    67  62  84 CALM      29.99S
SELINSGROVE    CLOUDY    71  67  87 CALM      29.99S
FT INDIANTOWN  CLOUDY    77  65  65 W5        29.96F
CAPITAL CITY   MOCLDY    78  71  79 W6        29.97F
HARRISBURG     TSTM      79  69  71 W7        29.97F
YORK           LGT RAIN  73  70  90 W3        29.99F FOG
$$

PAZ038>040-043-044-047-048-054-055-060>062-067>071-110600-
EASTERN PENNSYLVANIA

CITY           SKY/WX    TMP DP  RH WIND       PRES   REMARKS
TOWANDA        CLEAR     63  61  94 CALM      30.05R
SCRANTON       PTCLDY    68  59  73 E5        30.02S
MOUNT POCONO   MOCLDY    64  58  80 N3        30.05F
HAZLETON       FAIR      64  63  94 CALM      30.06F
LEHIGHTON      FAIR      66  63  88 CALM      30.00F
ALLENTOWN      CLOUDY    73  62  68 NW3       29.98S
QN CITY/ALNTWN MOCLDY    73  68  83 CALM      29.99S
QUAKERTOWN*    MOCLDY    73  72  94 CALM      29.98F
PERKASIE*      CLOUDY    72  72 100 CALM      29.99F
DOYLESTOWN     CLOUDY    76  68  76 CALM      29.96F
READING        CLOUDY    78  69  73 W3        29.96F
LANCASTER      LGT RAIN  78  70  76 W6        29.98F
COATESVILLE    MOCLDY    75  73  94 CALM      29.99F
WEST CHESTER   MOCLDY    77  70  78 W3        29.97F
POTTSTOWN      CLOUDY    72  69  90 CALM      29.99F
BLUE BELL      MOCLDY    74  72  91 CALM      29.97F
NORTH PHILA    MOCLDY    79  70  74 CALM      29.96F
PHILADELPHIA   CLOUDY    81  74  79 W8        29.95F
$$




Office: PHI ASUS41 KPHI 110114 RWRPHI REGIONAL WEATHER ROUNDUP NATIONAL WEATHER SERVICE MOUNT HOLLY NJ 900 PM EDT WED AUG 10 2022 NOTE: "FAIR" INDICATES FEW OR NO CLOUDS BELOW 12,000 FEET WITH NO SIGNIFICANT WEATHER AND/OR OBSTRUCTIONS TO VISIBILITY. * = STATION DOES NOT REPORT PRECIPITATION (E.G. RAIN, SNOW, ETC.) OR FOG. NJZ015>026-110200- SOUTHERN NEW JERSEY CITY SKY/WX TMP DP RH WIND PRES REMARKS POMONA CLEAR 77 72 84 S6 29.99S WILDWOOD* MOCLDY 75 73 93 SE3 30.00S MILLVILLE MOCLDY 79 73 82 E3 29.99S WRIGHTSTOWN PTCLDY 77 71 82 S5 29.98R MOUNT HOLLY MOCLDY 81 69 67 CALM 29.97S TRENTON CLOUDY 81 72 74 S6 29.98R $$ NJZ001>014-110200- NORTHERN NEW JERSEY CITY SKY/WX TMP DP RH WIND PRES REMARKS SUSSEX PTCLDY 74 63 68 CALM 30.00R ANDOVER* N/A 73 65 75 CALM 30.00S MORRISTOWN PTCLDY 81 68 65 S3 29.98R NEWARK MOCLDY 80 67 64 SE6 29.98R TETERBORO PTCLDY 78 67 68 S7 29.97S CALDWELL PTCLDY 80 64 58 CALM 29.99R SOMERVILLE PTCLDY 77 67 71 SE3 29.96R ALLAIRE* MOCLDY 76 74 93 SE5 30.00S $$ PAZ043-044-047-054-055-060>062-066>071-110200- EASTERN PENNSYLVANIA CITY SKY/WX TMP DP RH WIND PRES REMARKS PHILADELPHIA MOCLDY 87 68 52 W8 29.97F HX 90 NORTH PHILA CLOUDY 85 66 53 W6 29.98S BLUE BELL* CLOUDY 78 72 80 CALM 29.99F DOYLESTOWN MOCLDY 81 66 60 CALM 29.98S QUAKERTOWN* CLEAR 77 70 78 CALM 30.00S PERKASIE* FAIR 73 72 94 CALM 30.01S POTTSTOWN CLOUDY 78 66 66 CALM 30.01S LANCASTER CLOUDY 82 67 60 W5 29.99S COATESVILLE CLOUDY 79 70 73 W3 30.02S WEST CHESTER FAIR 81 68 65 CALM 30.00S READING MOCLDY 82 67 60 CALM 29.98S ALLENTOWN MOCLDY 79 59 50 NW3 29.99S QN CITY/ALNTWN FAIR 81 64 57 CALM 30.00S MOUNT POCONO PTCLDY 65 60 84 CALM 30.06F HAZLETON PTCLDY 66 61 82 CALM 30.08S LEHIGHTON FAIR 70 63 78 CALM 30.01S WILKES BARRE PTCLDY 73 60 63 E5 30.03R $$ DEZALL-MDZ008-012-015-019-020-110200- DELAWARE AND EASTERN MARYLAND CITY SKY/WX TMP DP RH WIND PRES REMARKS WILMINGTON MOCLDY 82 70 66 NW6 29.98F DOVER LGT RAIN 75 72 88 NW7 29.97S CHESWOLD CLOUDY 73 72 94 W5 29.99S GEORGETOWN HVY RAIN 77 74 90 W8G18 30.03R FOG EASTON MOCLDY 75 73 94 W8 30.04F PATUXENT CLOUDY 75 70 84 SW9 30.02R OCEAN CITY NOT AVBL WALLOPS ISLAND LGT RAIN 77 72 84 SW10 30.04R SALISBURY CLOUDY 76 74 93 CALM 30.01R $$ PAZ001-021-NYZ056-072-MDZ011-DCZ001-110200- OTHER NEARBY LOCATIONS CITY SKY/WX TMP DP RH WIND PRES REMARKS HARRISBURG CLOUDY 82 67 60 W3 29.98F STATE COLLEGE PTCLDY 73 66 78 SW5 30.05R WILLIAMSPORT PTCLDY 75 63 66 CALM 29.98S BINGHAMTON PTCLDY 66 55 67 E3 30.06R NEW YORK CITY PTCLDY 78 66 66 VRB5 30.01R BALTIMORE LGT RAIN 73 71 93 W5 29.99F WASHINGTON DC LGT RAIN 74 71 91 SW7 30.01F $$